Regional Weather Roundup
Issued by NWS State College, PA

Home | Current Version | Previous Version | Graphics & Text | Print | Product List | Glossary On
Versions: 1 2 3 4 5 6 7 8 9 10 11 12 13 14 15 16 17 18 19 20 21 22 23 24 25 26 27 28 29 30 31 32 33 34 35 36 37 38 39 40 41 42 43 44 45 46 47 48 49 50
000
ASUS41 KCTP 230610
RWRCTP

REGIONAL WEATHER ROUNDUP
NATIONAL WEATHER SERVICE STATE COLLEGE PA
200 AM EDT SUN APR 23 2017

Note: "fair" indicates few or no clouds below 12,000 feet with no
significant weather and/or obstructions to visibility.

* = STATION THAT DOES NOT REPORT PRECIPITATION /E.G. RAIN...SNOW...ETC/
    THUNDER OR FOG.

PAZ002>004-007>009-013>016-020>023-029>032-230700-
WESTERN PENNSYLVANIA

CITY           SKY/WX    TMP DP  RH WIND       PRES   REMARKS
ERIE           CLEAR     36  33  89 S3        30.13S
MEADVILLE      CLEAR     38  35  89 CALM      30.11S
FRANKLIN*      CLEAR     36  27  69 N3        30.12S
NEW CASTLE     NOT AVBL
BEAVER COUNTY  NOT AVBL
BUTLER*        CLEAR     39  30  70 NE6       30.11S
PITTSBURGH INT PTCLDY    44  31  60 N8        30.08F
PITTSBURGH     PTCLDY    44  31  60 N5        30.07S
INDIANA*       CLEAR     41  36  81 CALM      30.11F
LATROBE        PTCLDY    37  37 100 E3        30.08F
WASHINGTON CO* PTCLDY    43  30  61 N6        30.09F
$$

PAZ004>006-010>012-017>019-024>028-033>037-041-042-045-046-049>053-230700-
CENTRAL PENNSYLVANIA

CITY           SKY/WX    TMP DP  RH WIND       PRES   REMARKS
BRADFORD       CLOUDY    31  31 100 CALM      30.09R
DUBOIS         CLEAR     37  30  75 N5        30.08S
CLEARFIELD     CLEAR     38  32  79 N5        30.09S
JOHNSTOWN      CLEAR     40  33  76 NE8       30.05S
ALTOONA        CLOUDY    43  35  73 NE6       30.07F
STATE COLLEGE  CLEAR     42  34  74 CALM      30.09S
WILLIAMSPORT   CLEAR     40  36  86 CALM      30.09R
SELINSGROVE    CLOUDY    39  37  92 CALM      30.10R
FT INDIANTOWN  MOCLDY    45  36  70 CALM      30.07S
CAPITAL CITY   MOCLDY    50  34  54 N6        30.08R
HARRISBURG     CLOUDY    47  38  71 N5        30.08R
YORK           MOCLDY    46  40  79 N5        30.07S
$$

PAZ038>040-043-044-047-048-054-055-060>062-067>071-230700-
EASTERN PENNSYLVANIA

CITY           SKY/WX    TMP DP  RH WIND       PRES   REMARKS
SCRANTON       CLOUDY    40  34  79 E3        30.07S
MOUNT POCONO   CLOUDY    38  33  82 N6        30.03R
ALLENTOWN      MOCLDY    42  34  73 N5        30.06S
QUAKERTOWN*    PTCLDY    45  36  70 N3        30.06R
READING        CLOUDY    45  36  70 N8        30.07R
LANCASTER      CLOUDY    46  38  73 N8        30.07R
COATESVILLE    MOCLDY    45  36  70 N6        30.06S
POTTSTOWN      PTCLDY    43  34  70 NW6       30.08R
BLUE BELL      PTCLDY    43  36  75 CALM      30.07R
DOYLESTOWN     PTCLDY    43  36  76 N3        30.04S
WILLOW GROVE   NOT AVBL
NORTH PHILA    MOCLDY    45  38  76 N7        30.06R
PHILADELPHIA   MOCLDY    48  37  65 N10       30.06R
$$



USA.gov is the U.S. government's official web portal to all federal, state and local government web resources and services.